7 * 24
多渠道服务支持
ORBCOMM FM19 是一颗由 ORBCOMM 公司运营的低轨(LEO)卫星,属于其全球物联网通信网络的一部分。该卫星主要用于提供远程机器到机器(M2M)通信服务,支持物流、运输、能源和环境监测等行业。FM19 运行在 160 公里左右的近地轨道,采用 L 波段通信,具备低延迟和广域覆盖的特点,能够实现全球范围内的数据传输与设备追踪。
| 数据来源 | 国际轨道数据 |
| 星历时间: | 2025-10-25T15:55:53+0800 13小时前 查看轨道信息 |
| 半长轴: | 7140.727km |
| 偏心率: | 0.000438 |
| 轨道倾角: | 44.993° |
| 近地点辐角 | 245.164° |
| 升交点赤经 | 279.358° |
| 平近点角 | 253.338° |
| 近地点: | 759.464km |
| 远地点: | 765.72km |
| 周期: | 100.086分钟 |
| 每日圈数: | 14.387627 |